| time (UTC) | temp F | wind direction | speed knots | gust knots | rain 1hr in | rain 24hr in | rain mn in | humidity % | barometer mb |
| 20260505192016 | 58 | 0.0 | 0.9 | 0.00 | 0.88 | 0.78 | 88 | 1010.9 | |
| 20260505191016 | 58 | 0.0 | 0.0 | 0.00 | 0.90 | 0.78 | 88 | 1010.8 | |
| 20260505190017 | 58 | 0.0 | 0.0 | 0.00 | 0.91 | 0.78 | 88 | 1010.6 | |
| 20260505185016 | 59 | 0.0 | 0.0 | 0.00 | 0.91 | 0.78 | 88 | 1010.9 | |
| 20260505184016 | 59 | 0.0 | 0.0 | 0.00 | 0.91 | 0.78 | 88 | 1011.0 | |
| 20260505183015 | 59 | 0.0 | 0.0 | 0.00 | 0.91 | 0.78 | 88 | 1011.0 | |
| 20260505182015 | 60 | 0.0 | 0.0 | 0.00 | 0.91 | 0.78 | 88 | 1011.0 | |
| 20260505181015 | 60 | 0.0 | 0.0 | 0.00 | 0.91 | 0.78 | 88 | 1010.8 | |
| 20260505180017 | 60 | 0.0 | 0.0 | 0.00 | 0.91 | 0.78 | 88 | 1010.8 | |
| 20260505175017 | 60 | 0.0 | 0.0 | 0.00 | 0.92 | 0.78 | 89 | 1010.9 | |
| 20260505174017 | 60 | 0.0 | 0.9 | 0.00 | 0.96 | 0.78 | 89 | 1010.9 | |
| 20260505173017 | 61 | 0.0 | 0.0 | 0.00 | 0.97 | 0.78 | 89 | 1010.9 | |
| 20260505172017 | 61 | 0.0 | 0.0 | 0.00 | 0.97 | 0.78 | 88 | 1011.0 | |
| 20260505171017 | 61 | 0.0 | 0.0 | 0.00 | 0.98 | 0.78 | 88 | 1011.2 | |
| 20260505170036 | 61 | 0.0 | 0.0 | 0.00 | 0.98 | 0.78 | 88 | 1011.1 | |
| 20260505165040 | 61 | 0.0 | 0.0 | 0.00 | 0.98 | 0.78 | 87 | 1011.1 | |
| 20260505164017 | 62 | 0.0 | 0.0 | 0.00 | 0.98 | 0.78 | 87 | 1011.2 | |
| 20260505163038 | 62 | 0.0 | 0.0 | 0.00 | 0.98 | 0.78 | 88 | 1011.2 | |
| 20260505162057 | 62 | 0.0 | 0.0 | 0.00 | 0.98 | 0.78 | 87 | 1011.3 | |
| 20260505161017 | 62 | 0.0 | 0.0 | 0.00 | 0.99 | 0.78 | 87 | 1011.1 | |
| 20260505153018 | 62 | 113 | 0.9 | 2.6 | 0.00 | 1.00 | 0.78 | 87 | 1011.3 |
| 20260505152017 | 62 | 225 | 0.9 | 2.6 | 0.00 | 1.00 | 0.78 | 88 | 1011.1 |
| 20260505151017 | 62 | 225 | 0.9 | 1.7 | 0.00 | 1.00 | 0.78 | 90 | 1011.0 |
| 20260505125037 | 60 | 113 | 0.9 | 3.5 | 0.02 | 1.00 | 0.78 | 93 | 1011.6 |
| 20260505124018 | 60 | 135 | 0.9 | 2.6 | 0.02 | 0.99 | 0.77 | 93 | 1011.7 |
| 20260505123018 | 60 | 0.0 | 1.7 | 0.01 | 0.98 | 0.76 | 93 | 1011.5 | |
| 20260505122017 | 60 | 0.0 | 0.9 | 0.01 | 0.98 | 0.76 | 93 | 1011.5 | |
| 20260505121037 | 60 | 113 | 0.9 | 2.6 | 0.00 | 0.98 | 0.76 | 93 | 1011.5 |
| 20260505120018 | 60 | 0.0 | 0.9 | 0.00 | 0.98 | 0.76 | 93 | 1011.5 | |
| 20260505115016 | 60 | 0.0 | 0.9 | 0.00 | 0.98 | 0.76 | 94 | 1011.6 | |
| 20260505114016 | 60 | 0.0 | 0.0 | 0.00 | 0.98 | 0.76 | 94 | 1011.5 | |
| 20260505113017 | 60 | 0.0 | 0.0 | 0.00 | 0.98 | 0.76 | 94 | 1011.5 | |
| 20260505112016 | 59 | 0.0 | 0.9 | 0.00 | 0.98 | 0.76 | 94 | 1011.6 | |
| 20260505111017 | 59 | 158 | 0.9 | 1.7 | 0.00 | 0.98 | 0.76 | 94 | 1011.7 |
| 20260505102017 | 58 | 0.0 | 0.9 | 0.02 | 0.98 | 0.76 | 94 | 1011.6 | |
| 20260505101016 | 57 | 0.0 | 0.9 | 0.02 | 0.98 | 0.76 | 94 | 1011.7 | |
| 20260505100017 | 57 | 0.0 | 0.0 | 0.00 | 0.96 | 0.74 | 94 | 1011.8 | |
| 20260505095037 | 57 | 0.0 | 1.7 | 0.01 | 0.96 | 0.74 | 94 | 1011.8 | |
| 20260505094016 | 57 | 113 | 0.9 | 4.3 | 0.03 | 0.96 | 0.74 | 93 | 1011.8 |
| 20260505093018 | 58 | 0.0 | 1.7 | 0.04 | 0.96 | 0.74 | 94 | 1011.7 | |
| 20260505092036 | 58 | 0.0 | 1.7 | 0.05 | 0.96 | 0.74 | 94 | 1011.6 | |
| 20260505091016 | 57 | 0.0 | 0.9 | 0.05 | 0.96 | 0.74 | 94 | 1011.5 | |
| 20260505090016 | 57 | 0.0 | 0.0 | 0.06 | 0.96 | 0.74 | 94 | 1011.5 | |
| 20260505085036 | 57 | 0.0 | 0.0 | 0.07 | 0.95 | 0.73 | 94 | 1011.5 | |
| 20260505084016 | 57 | 0.0 | 0.9 | 0.05 | 0.93 | 0.71 | 94 | 1011.5 | |
| 20260505083018 | 57 | 0.0 | 0.0 | 0.05 | 0.92 | 0.70 | 94 | 1011.4 | |
| 20260505082016 | 57 | 0.0 | 0.9 | 0.04 | 0.91 | 0.69 | 94 | 1011.3 | |
| 20260505081017 | 57 | 0.0 | 0.9 | 0.04 | 0.91 | 0.69 | 94 | 1011.3 | |
| 20260505080015 | 57 | 0.0 | 0.9 | 0.03 | 0.91 | 0.69 | 94 | 1011.2 | |
| 20260505075018 | 57 | 0.0 | 0.0 | 0.01 | 0.88 | 0.66 | 94 | 1011.3 | |
| 20260505074016 | 57 | 0.0 | 0.0 | 0.01 | 0.88 | 0.66 | 94 | 1011.2 | |
| 20260505073016 | 57 | 0.0 | 0.0 | 0.01 | 0.87 | 0.65 | 94 | 1011.2 | |
| 20260505072016 | 57 | 0.0 | 0.0 | 0.01 | 0.87 | 0.65 | 94 | 1011.2 | |
| 20260505071016 | 57 | 0.0 | 0.0 | 0.01 | 0.87 | 0.65 | 94 | 1011.1 | |
| 20260505070017 | 57 | 0.0 | 0.0 | 0.01 | 0.87 | 0.65 | 94 | 1011.2 | |
| 20260505065016 | 57 | 0.0 | 0.9 | 0.01 | 0.87 | 0.65 | 94 | 1011.0 | |
| 20260505064015 | 57 | 0.0 | 0.0 | 0.01 | 0.87 | 0.65 | 94 | 1010.9 | |
| 20260505063017 | 57 | 0.0 | 0.0 | 0.00 | 0.87 | 0.65 | 94 | 1010.9 | |
| 20260505062016 | 57 | 0.0 | 0.0 | 0.00 | 0.87 | 0.65 | 94 | 1010.7 | |
| 20260505061015 | 56 | 0.0 | 0.0 | 0.00 | 0.87 | 0.65 | 94 | 1010.7 | |
| 20260505060016 | 56 | 0.0 | 0.0 | 0.07 | 0.87 | 0.65 | 93 | 1010.4 | |
| 20260505055015 | 56 | 0.0 | 0.0 | 0.15 | 0.87 | 0.65 | 93 | 1010.4 | |
| 20260505054037 | 56 | 0.0 | 0.0 | 0.15 | 0.87 | 0.65 | 93 | 1010.4 | |
| 20260505053016 | 56 | 0.0 | 0.0 | 0.16 | 0.87 | 0.65 | 93 | 1010.4 | |
| 20260505052015 | 56 | 0.0 | 0.0 | 0.16 | 0.87 | 0.65 | 93 | 1010.3 | |
| 20260505051015 | 56 | 0.0 | 0.9 | 0.16 | 0.87 | 0.65 | 93 | 1010.2 | |
| 20260505041018 | 55 | 0.0 | 0.0 | 0.00 | 0.71 | 0.49 | 93 | 1010.0 | |
| 20260505040017 | 55 | 0.0 | 0.0 | 0.00 | 0.71 | 0.49 | 93 | 1010.2 | |
| 20260505035017 | 55 | 0.0 | 0.0 | 0.00 | 0.71 | 0.49 | 93 | 1010.2 | |
| 20260505034017 | 55 | 0.0 | 0.0 | 0.00 | 0.71 | 0.49 | 93 | 1010.4 | |
| 20260505033037 | 55 | 0.0 | 0.9 | 0.00 | 0.71 | 0.49 | 93 | 1010.4 | |
| 20260505032018 | 55 | 0.0 | 0.0 | 0.00 | 0.71 | 0.49 | 93 | 1010.4 | |
| 20260505031019 | 54 | 0.0 | 0.0 | 0.01 | 0.71 | 0.49 | 93 | 1010.5 | |
| 20260505030017 | 54 | 0.0 | 0.0 | 0.01 | 0.71 | 0.49 | 93 | 1010.6 | |
| 20260505025017 | 54 | 0.0 | 0.0 | 0.01 | 0.71 | 0.49 | 93 | 1010.7 | |
| 20260505024037 | 54 | 0.0 | 0.0 | 0.02 | 0.71 | 0.49 | 93 | 1010.5 | |
| 20260505023017 | 54 | 0.0 | 0.0 | 0.04 | 0.71 | 0.49 | 93 | 1010.7 | |
| 20260505022017 | 54 | 0.0 | 1.7 | 0.13 | 0.71 | 0.49 | 93 | 1010.9 | |
| 20260505021018 | 55 | 0.0 | 1.7 | 0.20 | 0.70 | 0.48 | 93 | 1011.0 | |
| 20260505020017 | 55 | 0.0 | 1.7 | 0.26 | 0.70 | 0.48 | 93 | 1011.2 | |
| 20260505015018 | 55 | 113 | 0.9 | 2.6 | 0.31 | 0.70 | 0.48 | 93 | 1011.4 |
| 20260505014017 | 55 | 0.0 | 1.7 | 0.34 | 0.69 | 0.47 | 93 | 1011.5 | |
| 20260505013017 | 55 | 0.0 | 0.9 | 0.34 | 0.67 | 0.45 | 92 | 1011.7 | |
| 20260505012017 | 55 | 0.0 | 0.0 | 0.27 | 0.58 | 0.36 | 92 | 1012.2 | |
| 20260505011019 | 55 | 0.0 | 0.0 | 0.21 | 0.50 | 0.28 | 92 | 1012.3 | |
| 20260505010017 | 55 | 0.0 | 0.9 | 0.16 | 0.44 | 0.22 | 92 | 1012.5 | |
| 20260505005037 | 55 | 0.0 | 1.7 | 0.12 | 0.39 | 0.17 | 92 | 1012.5 | |
| 20260505004017 | 55 | 0.0 | 0.0 | 0.09 | 0.35 | 0.13 | 92 | 1012.3 | |
| 20260505003017 | 55 | 0.0 | 1.7 | 0.09 | 0.33 | 0.11 | 92 | 1012.4 | |
| 20260505002017 | 55 | 0.0 | 0.0 | 0.08 | 0.31 | 0.09 | 92 | 1012.5 | |
| 20260505001017 | 55 | 0.0 | 0.0 | 0.06 | 0.29 | 0.07 | 92 | 1012.7 | |
| 20260505000017 | 55 | 0.0 | 0.0 | 0.06 | 0.28 | 0.06 | 92 | 1012.8 | |
| 20260504235017 | 55 | 0.0 | 0.0 | 0.05 | 0.28 | 0.06 | 92 | 1013.1 | |
| 20260504234017 | 55 | 0.0 | 0.0 | 0.03 | 0.26 | 0.04 | 92 | 1013.0 | |
| 20260504233017 | 55 | 0.0 | 0.0 | 0.02 | 0.24 | 0.02 | 92 | 1013.0 | |
| 20260504232039 | 55 | 0.0 | 0.0 | 0.02 | 0.24 | 0.02 | 92 | 1013.1 | |
| 20260504231017 | 55 | 0.0 | 0.0 | 0.01 | 0.23 | 0.01 | 92 | 1013.2 | |
| 20260504230017 | 55 | 0.0 | 0.0 | 0.01 | 0.23 | 0.01 | 92 | 1013.2 | |
| 20260504225017 | 55 | 0.0 | 0.0 | 0.01 | 0.23 | 0.01 | 92 | 1013.3 | |
| 20260504224018 | 55 | 0.0 | 0.0 | 0.01 | 0.23 | 0.01 | 91 | 1013.3 | |
| 20260504223017 | 55 | 0.0 | 0.0 | 0.00 | 0.22 | 0.00 | 91 | 1013.5 | |
| 20260504222017 | 55 | 0.0 | 0.0 | 0.00 | 0.22 | 0.00 | 91 | 1013.7 | |
| 20260504221017 | 55 | 0.0 | 0.9 | 0.00 | 0.22 | 0.00 | 91 | 1013.8 | |
| 20260504220016 | 55 | 0.0 | 0.9 | 0.00 | 0.22 | 0.22 | 91 | 1013.8 | |
| 20260504215038 | 55 | 0.0 | 0.9 | 0.00 | 0.22 | 0.22 | 91 | 1014.0 | |
| 20260504214016 | 55 | 0.0 | 0.0 | 0.00 | 0.22 | 0.22 | 91 | 1014.3 | |
| 20260504213037 | 55 | 0.0 | 0.0 | 0.02 | 0.22 | 0.22 | 90 | 1014.4 | |
| 20260504212016 | 55 | 0.0 | 0.0 | 0.05 | 0.22 | 0.22 | 90 | 1014.5 | |
| 20260504211018 | 55 | 0.0 | 0.0 | 0.09 | 0.22 | 0.22 | 90 | 1014.6 | |
| 20260504210016 | 55 | 0.0 | 0.0 | 0.09 | 0.22 | 0.22 | 90 | 1014.7 | |
| 20260504205038 | 55 | 0.0 | 0.0 | 0.09 | 0.22 | 0.22 | 90 | 1014.8 | |
| 20260504204036 | 55 | 0.0 | 0.0 | 0.09 | 0.22 | 0.22 | 90 | 1014.9 | |
| 20260504203019 | 55 | 0.0 | 0.0 | 0.09 | 0.20 | 0.20 | 90 | 1015.0 | |
| 20260504202019 | 56 | 0.0 | 0.0 | 0.06 | 0.17 | 0.17 | 90 | 1015.0 | |
| 20260504201016 | 56 | 0.0 | 0.9 | 0.03 | 0.13 | 0.13 | 89 | 1015.1 | |
| 20260504200118 | 56 | 0.0 | 0.0 | 0.04 | 0.13 | 0.13 | 89 | 1015.0 | |
| 20260504195016 | 57 | 0.0 | 0.0 | 0.04 | 0.13 | 0.13 | 89 | 1015.0 | |
| 20260504194017 | 57 | 0.0 | 0.0 | 0.04 | 0.13 | 0.13 | 89 | 1015.0 | |
| 20260504193017 | 57 | 0.0 | 0.0 | 0.03 | 0.12 | 0.12 | 89 | 1014.9 |